Year,Month,Day,Hour,Minute,Value (Times are PST for temperature in C)
2010,03,22,09,57,6.60
2010,03,22,09,58,6.60
2010,03,22,09,59,6.70
2010,03,22,10,00,6.60
2010,03,22,10,01,6.70
2010,03,22,10,02,6.70
2010,03,22,10,03,6.70
2010,03,22,10,04,6.70
2010,03,22,10,05,6.70
2010,03,22,10,06,6.70
2010,03,22,10,07,6.70
2010,03,22,10,08,6.70
2010,03,22,10,09,6.70
2010,03,22,10,10,6.70
2010,03,22,10,11,6.70
2010,03,22,10,12,6.70
2010,03,22,10,13,6.70
2010,03,22,10,14,6.70
2010,03,22,10,15,6.70
2010,03,22,10,16,6.70
2010,03,22,10,17,6.70
2010,03,22,10,18,6.70
2010,03,22,10,19,6.70
2010,03,22,10,20,6.70
2010,03,22,10,21,6.80
2010,03,22,10,22,6.80
2010,03,22,10,23,6.80
2010,03,22,10,24,6.80
2010,03,22,10,25,6.80
2010,03,22,10,26,6.80
2010,03,22,10,27,6.80
2010,03,22,10,28,6.90
2010,03,22,10,29,6.90
2010,03,22,10,30,6.90
2010,03,22,10,31,6.90
2010,03,22,10,32,7.00
2010,03,22,10,33,7.00
2010,03,22,10,34,7.10
2010,03,22,10,35,7.10
2010,03,22,10,36,7.10
2010,03,22,10,37,7.20
2010,03,22,10,38,7.20
2010,03,22,10,39,7.20
2010,03,22,10,40,7.20
2010,03,22,10,41,7.20
2010,03,22,10,42,7.20
2010,03,22,10,43,7.20
2010,03,22,10,44,7.20
2010,03,22,10,45,7.20
2010,03,22,10,46,7.20
2010,03,22,10,47,7.20
2010,03,22,10,48,7.20
2010,03,22,10,49,7.20
2010,03,22,10,50,7.20
2010,03,22,10,51,7.20
2010,03,22,10,52,7.20
2010,03,22,10,53,7.30
2010,03,22,10,54,7.30
2010,03,22,10,55,7.30
2010,03,22,10,56,7.30
2010,03,22,10,57,7.30
2010,03,22,10,58,7.30
2010,03,22,10,59,7.30
2010,03,22,11,00,7.30
2010,03,22,11,01,7.30
2010,03,22,11,02,7.30
2010,03,22,11,03,7.30
2010,03,22,11,04,7.30
2010,03,22,11,05,7.30
2010,03,22,11,06,7.30
2010,03,22,11,07,7.40
2010,03,22,11,08,7.40
2010,03,22,11,09,7.40
2010,03,22,11,10,7.40
2010,03,22,11,11,7.40
2010,03,22,11,12,7.40
2010,03,22,11,13,7.40
2010,03,22,11,14,7.40
2010,03,22,11,15,7.40
2010,03,22,11,16,7.40
2010,03,22,11,17,7.40
2010,03,22,11,18,7.50
2010,03,22,11,19,7.50
2010,03,22,11,20,7.50
2010,03,22,11,21,7.50
2010,03,22,11,22,7.50
2010,03,22,11,23,7.50
2010,03,22,11,24,7.60
2010,03,22,11,25,7.60
2010,03,22,11,26,7.60
2010,03,22,11,27,7.60
2010,03,22,11,28,7.60
2010,03,22,11,29,7.60
2010,03,22,11,30,7.60
2010,03,22,11,31,7.60
2010,03,22,11,32,7.60
2010,03,22,11,33,7.60
2010,03,22,11,34,7.60
2010,03,22,11,35,7.60
2010,03,22,11,36,7.70
2010,03,22,11,37,7.70
2010,03,22,11,38,7.70
2010,03,22,11,39,7.70
2010,03,22,11,40,7.80
2010,03,22,11,41,7.80
2010,03,22,11,42,7.80
2010,03,22,11,43,7.90
2010,03,22,11,44,7.90
2010,03,22,11,45,7.90
2010,03,22,11,46,8.00
2010,03,22,11,47,8.00
2010,03,22,11,48,8.10
2010,03,22,11,49,8.10
2010,03,22,11,50,8.10
2010,03,22,11,51,8.10
2010,03,22,11,52,8.20
2010,03,22,11,53,8.20
2010,03,22,11,54,8.30
2010,03,22,11,55,8.30
2010,03,22,11,56,8.30
2010,03,22,11,57,8.30
2010,03,22,11,58,8.30
2010,03,22,11,59,8.30
2010,03,22,12,00,8.30
2010,03,22,12,01,8.30
2010,03,22,12,02,8.30
2010,03,22,12,03,8.40
2010,03,22,12,04,8.30
2010,03,22,12,05,8.30
2010,03,22,12,06,8.30
2010,03,22,12,07,8.30
2010,03,22,12,08,8.40
2010,03,22,12,09,8.40
2010,03,22,12,10,8.40
2010,03,22,12,11,8.30
2010,03,22,12,12,8.30
2010,03,22,12,13,8.30
2010,03,22,12,14,8.30
2010,03,22,12,15,8.30
2010,03,22,12,16,8.30
2010,03,22,12,17,8.30
2010,03,22,12,18,8.30
2010,03,22,12,19,8.30
2010,03,22,12,20,8.30
2010,03,22,12,21,8.30
2010,03,22,12,22,8.30
2010,03,22,12,23,8.30
2010,03,22,12,24,8.30
2010,03,22,12,25,8.30
2010,03,22,12,26,8.30
2010,03,22,12,27,8.30
2010,03,22,12,28,8.30
2010,03,22,12,29,8.30
2010,03,22,12,30,8.30
2010,03,22,12,31,8.30
2010,03,22,12,32,8.30
2010,03,22,12,33,8.30
2010,03,22,12,34,8.30
2010,03,22,12,35,8.30
2010,03,22,12,36,8.30
2010,03,22,12,37,8.40
2010,03,22,12,38,8.40
2010,03,22,12,39,8.50
2010,03,22,12,40,8.50
2010,03,22,12,41,8.60
2010,03,22,12,42,8.60
2010,03,22,12,43,8.60
2010,03,22,12,44,8.60
2010,03,22,12,45,8.60
2010,03,22,12,46,8.60
2010,03,22,12,47,8.60
2010,03,22,12,48,8.70
2010,03,22,12,49,8.70
2010,03,22,12,50,8.80
2010,03,22,12,51,8.80
2010,03,22,12,52,8.80
2010,03,22,12,53,8.80
2010,03,22,12,54,8.90
2010,03,22,12,55,8.90
2010,03,22,12,56,8.90
2010,03,22,12,57,9.00
2010,03,22,12,58,9.00
2010,03,22,12,59,9.00
2010,03,22,13,00,9.00
2010,03,22,13,01,9.10
2010,03,22,13,02,9.10
2010,03,22,13,03,9.10
2010,03,22,13,04,9.20
2010,03,22,13,05,9.20
2010,03,22,13,06,9.30
2010,03,22,13,07,9.30
2010,03,22,13,08,9.40
2010,03,22,13,09,9.40
2010,03,22,13,10,9.40
2010,03,22,13,11,9.50
2010,03,22,13,12,9.60
2010,03,22,13,13,9.60
2010,03,22,13,14,9.70
2010,03,22,13,15,9.70
2010,03,22,13,16,9.80
2010,03,22,13,17,9.80
2010,03,22,13,18,9.90
2010,03,22,13,19,9.90
2010,03,22,13,20,10.00
2010,03,22,13,21,10.00
2010,03,22,13,22,10.10
2010,03,22,13,23,10.10
2010,03,22,13,24,10.20
2010,03,22,13,25,10.20
2010,03,22,13,26,10.20
2010,03,22,13,27,10.20
2010,03,22,13,28,10.20
2010,03,22,13,29,10.30
2010,03,22,13,30,10.40
2010,03,22,13,31,10.50
2010,03,22,13,32,10.50
2010,03,22,13,33,10.50
2010,03,22,13,34,10.50
2010,03,22,13,35,10.40
2010,03,22,13,36,10.40
2010,03,22,13,37,10.40
2010,03,22,13,38,10.40
2010,03,22,13,39,10.30
2010,03,22,13,40,10.30
2010,03,22,13,41,10.30
2010,03,22,13,42,10.30
2010,03,22,13,43,10.30
2010,03,22,13,44,10.30
2010,03,22,13,45,10.30
2010,03,22,13,46,10.30
2010,03,22,13,47,10.30
2010,03,22,13,48,10.30
2010,03,22,13,49,10.20
2010,03,22,13,50,10.30
2010,03,22,13,51,10.30
2010,03,22,13,52,10.30
2010,03,22,13,53,10.30
2010,03,22,13,54,10.30
2010,03,22,13,55,10.30
2010,03,22,13,56,10.40
2010,03,22,13,57,10.40
2010,03,22,13,58,10.30
2010,03,22,13,59,10.30
2010,03,22,14,00,10.30
2010,03,22,14,01,10.30
2010,03,22,14,02,10.30
2010,03,22,14,03,10.30
2010,03,22,14,04,10.30
2010,03,22,14,05,10.30
2010,03,22,14,06,10.30
2010,03,22,14,07,10.30
2010,03,22,14,08,10.30
2010,03,22,14,09,10.30
2010,03,22,14,10,10.30
2010,03,22,14,11,10.30
2010,03,22,14,12,10.30
2010,03,22,14,13,10.30
2010,03,22,14,14,10.30
2010,03,22,14,15,10.30
2010,03,22,14,16,10.30
2010,03,22,14,17,10.30
2010,03,22,14,18,10.30
2010,03,22,14,19,10.30
2010,03,22,14,20,10.30
2010,03,22,14,21,10.30
2010,03,22,14,22,10.30
2010,03,22,14,23,10.30
2010,03,22,14,24,10.20
2010,03,22,14,25,10.30
2010,03,22,14,26,10.30
2010,03,22,14,27,10.30
2010,03,22,14,28,10.30
2010,03,22,14,29,10.40
2010,03,22,14,30,10.40
2010,03,22,14,31,10.40
2010,03,22,14,32,10.40
2010,03,22,14,33,10.40
2010,03,22,14,34,10.40
2010,03,22,14,35,10.40
2010,03,22,14,36,10.40
2010,03,22,14,37,10.40
2010,03,22,14,38,10.40
2010,03,22,14,39,10.40
2010,03,22,14,40,10.40
2010,03,22,14,41,10.30
2010,03,22,14,42,10.30
2010,03,22,14,43,10.20
2010,03,22,14,44,10.20
2010,03,22,14,45,10.20
2010,03,22,14,46,10.20
2010,03,22,14,47,10.30
2010,03,22,14,48,10.30
2010,03,22,14,49,10.30
2010,03,22,14,50,10.30
2010,03,22,14,51,10.30
2010,03,22,14,52,10.30
2010,03,22,14,53,10.30
2010,03,22,14,54,10.30
2010,03,22,14,55,10.30
2010,03,22,14,56,10.30
2010,03,22,14,57,10.30
2010,03,22,14,58,10.30
2010,03,22,14,59,10.30
2010,03,22,15,00,10.20
2010,03,22,15,01,10.20
2010,03,22,15,02,10.20
2010,03,22,15,03,10.20
2010,03,22,15,04,10.20
2010,03,22,15,05,10.20
2010,03,22,15,06,10.20
2010,03,22,15,07,10.20
2010,03,22,15,08,10.20
2010,03,22,15,09,10.10
2010,03,22,15,10,10.10
2010,03,22,15,11,10.10
2010,03,22,15,12,10.10
2010,03,22,15,13,10.10
2010,03,22,15,14,10.10
2010,03,22,15,15,10.10
2010,03,22,15,16,10.10
2010,03,22,15,17,10.10
2010,03,22,15,18,10.10
2010,03,22,15,19,10.10
2010,03,22,15,20,10.10
2010,03,22,15,21,10.10
2010,03,22,15,22,10.10
2010,03,22,15,23,10.10
2010,03,22,15,24,10.10
2010,03,22,15,25,10.00
2010,03,22,15,26,10.00
2010,03,22,15,27,10.00
2010,03,22,15,28,9.90
2010,03,22,15,29,9.90
2010,03,22,15,30,9.90
2010,03,22,15,31,9.90
2010,03,22,15,32,9.90
2010,03,22,15,33,9.90
2010,03,22,15,34,9.80
2010,03,22,15,35,9.80
2010,03,22,15,36,9.80
2010,03,22,15,37,9.80
2010,03,22,15,38,9.80
2010,03,22,15,39,9.80
2010,03,22,15,40,9.80
2010,03,22,15,41,9.80
2010,03,22,15,42,9.80
2010,03,22,15,43,9.70
2010,03,22,15,44,9.70
2010,03,22,15,45,9.70
2010,03,22,15,46,9.70
2010,03,22,15,47,9.70
2010,03,22,15,48,9.70
2010,03,22,15,49,9.70
2010,03,22,15,50,9.70
2010,03,22,15,51,9.70
2010,03,22,15,52,9.70
2010,03,22,15,53,9.70
2010,03,22,15,54,9.70
2010,03,22,15,55,9.70
2010,03,22,15,56,9.70
2010,03,22,15,57,9.70
2010,03,22,15,58,9.70
2010,03,22,15,59,9.80
2010,03,22,16,00,9.80
2010,03,22,16,01,9.80
2010,03,22,16,02,9.80
2010,03,22,16,03,9.80
2010,03,22,16,04,9.80
2010,03,22,16,05,9.80
2010,03,22,16,06,9.80
2010,03,22,16,07,9.80
2010,03,22,16,08,9.80
2010,03,22,16,09,9.90
2010,03,22,16,10,9.90
2010,03,22,16,11,9.90
2010,03,22,16,12,9.90
2010,03,22,16,13,9.90
2010,03,22,16,14,9.90
2010,03,22,16,15,9.90
2010,03,22,16,16,9.90
2010,03,22,16,17,9.90
2010,03,22,16,18,10.00
2010,03,22,16,19,10.00
2010,03,22,16,20,10.00
2010,03,22,16,21,10.00
2010,03,22,16,22,9.90
2010,03,22,16,23,9.90
2010,03,22,16,24,9.90
2010,03,22,16,25,9.90
2010,03,22,16,26,9.90
2010,03,22,16,27,9.80
2010,03,22,16,28,9.80
2010,03,22,16,29,9.80
2010,03,22,16,30,9.80
2010,03,22,16,31,9.80
2010,03,22,16,32,9.80
2010,03,22,16,34,9.70
2010,03,22,16,35,9.70
2010,03,22,16,36,9.70
2010,03,22,16,37,9.70
2010,03,22,16,38,9.70
2010,03,22,16,39,9.70
2010,03,22,16,40,9.70
2010,03,22,16,41,9.70
2010,03,22,16,42,9.70
2010,03,22,16,43,9.70
2010,03,22,16,44,9.70
2010,03,22,16,45,9.70
2010,03,22,16,46,9.70
2010,03,22,16,47,9.60
2010,03,22,16,48,9.60
2010,03,22,16,49,9.60
2010,03,22,16,50,9.60
2010,03,22,16,51,9.60
2010,03,22,16,52,9.50
2010,03,22,16,53,9.50
2010,03,22,16,54,9.50
2010,03,22,16,55,9.50
2010,03,22,16,56,9.50
2010,03,22,16,57,9.50
2010,03,22,16,58,9.50
2010,03,22,16,59,9.40
2010,03,22,17,00,9.40
2010,03,22,17,01,9.40
2010,03,22,17,02,9.40
2010,03,22,17,03,9.40
2010,03,22,17,04,9.30
2010,03,22,17,05,9.30
2010,03,22,17,06,9.30
2010,03,22,17,07,9.30
2010,03,22,17,08,9.30
2010,03,22,17,09,9.30
2010,03,22,17,10,9.20
2010,03,22,17,11,9.20
2010,03,22,17,12,9.20
2010,03,22,17,13,9.20
2010,03,22,17,14,9.20
2010,03,22,17,15,9.20
2010,03,22,17,16,9.20
2010,03,22,17,17,9.10
2010,03,22,17,18,9.10
2010,03,22,17,19,9.10
2010,03,22,17,20,9.10
2010,03,22,17,21,9.10
2010,03,22,17,22,9.10
2010,03,22,17,23,9.10
2010,03,22,17,24,9.00
2010,03,22,17,25,9.00
2010,03,22,17,26,9.00
2010,03,22,17,27,8.90
2010,03,22,17,28,8.90
2010,03,22,17,29,8.90
2010,03,22,17,30,8.90
2010,03,22,17,31,8.90
2010,03,22,17,32,9.00
2010,03,22,17,33,8.90
2010,03,22,17,34,8.90
2010,03,22,17,35,8.90
2010,03,22,17,36,9.00
2010,03,22,17,37,9.00
2010,03,22,17,38,9.00
2010,03,22,17,39,9.00
2010,03,22,17,40,9.00
2010,03,22,17,41,9.10
2010,03,22,17,42,9.10
2010,03,22,17,43,9.10
2010,03,22,17,44,9.10
2010,03,22,17,45,9.10
2010,03,22,17,46,9.20
2010,03,22,17,47,9.20
2010,03,22,17,48,9.20
2010,03,22,17,49,9.20
2010,03,22,17,50,9.20
2010,03,22,17,51,9.20
2010,03,22,17,52,9.10
2010,03,22,17,53,9.10
2010,03,22,17,54,9.10
2010,03,22,17,55,9.10
2010,03,22,17,56,9.10
2010,03,22,17,57,9.10
2010,03,22,17,58,9.10
2010,03,22,17,59,9.10
2010,03,22,18,00,9.10
2010,03,22,18,01,9.00
2010,03,22,18,02,9.00
2010,03,22,18,03,9.00
2010,03,22,18,04,9.00
2010,03,22,18,05,9.00
2010,03,22,18,06,9.00
2010,03,22,18,07,9.00
2010,03,22,18,08,9.10
2010,03,22,18,09,9.10
2010,03,22,18,10,9.10
2010,03,22,18,11,9.10
2010,03,22,18,12,9.10
2010,03,22,18,13,9.10
2010,03,22,18,14,9.10
2010,03,22,18,15,9.10
2010,03,22,18,16,9.10
2010,03,22,18,17,9.20
2010,03,22,18,18,9.20
2010,03,22,18,19,9.20
2010,03,22,18,20,9.20
2010,03,22,18,21,9.20
2010,03,22,18,22,9.20
2010,03,22,18,23,9.20
2010,03,22,18,24,9.20
2010,03,22,18,25,9.20
2010,03,22,18,26,9.20
2010,03,22,18,27,9.20
2010,03,22,18,28,9.20
2010,03,22,18,29,9.20
2010,03,22,18,30,9.20
2010,03,22,18,31,9.20
2010,03,22,18,32,9.20
2010,03,22,18,33,9.20
2010,03,22,18,34,9.20
2010,03,22,18,35,9.20
2010,03,22,18,36,9.20
2010,03,22,18,37,9.20
2010,03,22,18,38,9.20
2010,03,22,18,39,9.20
2010,03,22,18,40,9.20
2010,03,22,18,41,9.20
2010,03,22,18,42,9.20
2010,03,22,18,43,9.20
2010,03,22,18,44,9.10
2010,03,22,18,45,9.10
2010,03,22,18,46,9.10
2010,03,22,18,47,9.10
2010,03,22,18,48,9.10
2010,03,22,18,49,9.10
2010,03,22,18,50,9.00
2010,03,22,18,51,9.00
2010,03,22,18,52,9.00
2010,03,22,18,53,9.00
2010,03,22,18,54,9.00
2010,03,22,18,55,8.90
2010,03,22,18,56,8.90
2010,03,22,18,57,8.90
2010,03,22,18,58,8.90
2010,03,22,18,59,8.90
2010,03,22,19,00,8.90
2010,03,22,19,01,8.90
2010,03,22,19,02,8.90
2010,03,22,19,03,8.90
2010,03,22,19,04,8.90
2010,03,22,19,05,8.90
2010,03,22,19,06,8.90
2010,03,22,19,07,8.90
2010,03,22,19,08,8.90
2010,03,22,19,09,8.90
2010,03,22,19,10,8.90
2010,03,22,19,11,8.90
2010,03,22,19,12,8.90
2010,03,22,19,13,8.90
2010,03,22,19,14,8.90
2010,03,22,19,15,8.90
2010,03,22,19,16,8.80
2010,03,22,19,17,8.80
2010,03,22,19,18,8.80
2010,03,22,19,19,8.80
2010,03,22,19,20,8.80
2010,03,22,19,21,8.80
2010,03,22,19,22,8.80
2010,03,22,19,23,8.80
2010,03,22,19,24,8.80
2010,03,22,19,25,8.80
2010,03,22,19,26,8.80
2010,03,22,19,27,8.80
2010,03,22,19,28,8.70
2010,03,22,19,29,8.70
2010,03,22,19,30,8.70
2010,03,22,19,31,8.70
2010,03,22,19,32,8.70
2010,03,22,19,33,8.70
2010,03,22,19,34,8.70
2010,03,22,19,35,8.70
2010,03,22,19,36,8.70
2010,03,22,19,37,8.70
2010,03,22,19,38,8.70
2010,03,22,19,39,8.70
2010,03,22,19,40,8.70
2010,03,22,19,41,8.70
2010,03,22,19,42,8.70
2010,03,22,19,43,8.70
2010,03,22,19,44,8.70
2010,03,22,19,45,8.70
2010,03,22,19,46,8.70
2010,03,22,19,47,8.70
2010,03,22,19,48,8.70
2010,03,22,19,49,8.60
2010,03,22,19,50,8.60
2010,03,22,19,51,8.60
2010,03,22,19,52,8.60
2010,03,22,19,53,8.60
2010,03,22,19,54,8.60
2010,03,22,19,55,8.60
2010,03,22,19,56,8.60
2010,03,22,19,57,8.60
2010,03,22,19,58,8.60
2010,03,22,19,59,8.50
2010,03,22,20,00,8.50
2010,03,22,20,01,8.60
2010,03,22,20,02,8.60
2010,03,22,20,03,8.60
2010,03,22,20,04,8.60
2010,03,22,20,05,8.60
2010,03,22,20,06,8.60
2010,03,22,20,07,8.60
2010,03,22,20,08,8.60
2010,03,22,20,09,8.60
2010,03,22,20,10,8.60
2010,03,22,20,11,8.60
2010,03,22,20,12,8.60
2010,03,22,20,13,8.60
2010,03,22,20,14,8.60
2010,03,22,20,15,8.60
2010,03,22,20,16,8.60
2010,03,22,20,17,8.60
2010,03,22,20,18,8.60
2010,03,22,20,19,8.60
2010,03,22,20,20,8.60
2010,03,22,20,21,8.60
2010,03,22,20,22,8.60
2010,03,22,20,23,8.60
2010,03,22,20,24,8.60
2010,03,22,20,25,8.60
2010,03,22,20,26,8.70
2010,03,22,20,27,8.60
2010,03,22,20,28,8.60
2010,03,22,20,29,8.60
2010,03,22,20,30,8.60
2010,03,22,20,31,8.60
2010,03,22,20,32,8.60
2010,03,22,20,33,8.60
2010,03,22,20,34,8.60
2010,03,22,20,35,8.60
2010,03,22,20,36,8.60
2010,03,22,20,37,8.60
2010,03,22,20,38,8.60
2010,03,22,20,39,8.60
2010,03,22,20,40,8.60
2010,03,22,20,41,8.60
2010,03,22,20,42,8.60
2010,03,22,20,43,8.60
2010,03,22,20,44,8.60
2010,03,22,20,45,8.60
2010,03,22,20,46,8.60
2010,03,22,20,47,8.60
2010,03,22,20,48,8.60
2010,03,22,20,49,8.60
2010,03,22,20,50,8.60
2010,03,22,20,51,8.60
2010,03,22,20,52,8.60
2010,03,22,20,53,8.60
2010,03,22,20,54,8.60
2010,03,22,20,55,8.60
2010,03,22,20,56,8.60
2010,03,22,20,57,8.60
2010,03,22,20,58,8.60
2010,03,22,20,59,8.60
2010,03,22,21,00,8.60
2010,03,22,21,01,8.60
2010,03,22,21,02,8.60
2010,03,22,21,03,8.60
2010,03,22,21,04,8.60
2010,03,22,21,05,8.60
2010,03,22,21,06,8.60
2010,03,22,21,07,8.60
2010,03,22,21,08,8.60
2010,03,22,21,09,8.60
2010,03,22,21,10,8.60
2010,03,22,21,11,8.60
2010,03,22,21,12,8.60
2010,03,22,21,13,8.50
2010,03,22,21,14,8.50
2010,03,22,21,15,8.50
2010,03,22,21,16,8.50
2010,03,22,21,17,8.50
2010,03,22,21,18,8.50
2010,03,22,21,19,8.40
2010,03,22,21,20,8.40
2010,03,22,21,21,8.40
2010,03,22,21,22,8.40
2010,03,22,21,23,8.40
2010,03,22,21,24,8.40
2010,03,22,21,25,8.40
2010,03,22,21,26,8.40
2010,03,22,21,27,8.40
2010,03,22,21,28,8.30
2010,03,22,21,29,8.30
2010,03,22,21,30,8.30
2010,03,22,21,31,8.30
2010,03,22,21,32,8.30
2010,03,22,21,33,8.30
2010,03,22,21,34,8.30
2010,03,22,21,35,8.30
2010,03,22,21,36,8.30
2010,03,22,21,37,8.30
2010,03,22,21,38,8.30
2010,03,22,21,39,8.30
2010,03,22,21,40,8.30
2010,03,22,21,41,8.20
2010,03,22,21,42,8.20
2010,03,22,21,43,8.30
2010,03,22,21,44,8.30
2010,03,22,21,45,8.30
2010,03,22,21,46,8.30
2010,03,22,21,47,8.30
2010,03,22,21,48,8.30
2010,03,22,21,49,8.30
2010,03,22,21,50,8.30
2010,03,22,21,51,8.40
2010,03,22,21,52,8.40
2010,03,22,21,53,8.40
2010,03,22,21,54,8.40
2010,03,22,21,55,8.40
2010,03,22,21,56,8.40
2010,03,22,21,57,8.40
2010,03,22,21,58,8.40
2010,03,22,21,59,8.40
2010,03,22,22,00,8.40
2010,03,22,22,01,8.50
2010,03,22,22,02,8.50
2010,03,22,22,03,8.50
2010,03,22,22,04,8.50
2010,03,22,22,05,8.50
2010,03,22,22,06,8.50
2010,03,22,22,07,8.50
2010,03,22,22,08,8.50
2010,03,22,22,09,8.50
2010,03,22,22,10,8.50
2010,03,22,22,11,8.50
2010,03,22,22,12,8.50
2010,03,22,22,13,8.50
2010,03,22,22,14,8.50
2010,03,22,22,15,8.50
2010,03,22,22,16,8.50
2010,03,22,22,17,8.40
2010,03,22,22,18,8.40
2010,03,22,22,19,8.40
2010,03,22,22,20,8.40
2010,03,22,22,21,8.40
2010,03,22,22,22,8.40
2010,03,22,22,23,8.50
2010,03,22,22,24,8.50
2010,03,22,22,25,8.50
2010,03,22,22,26,8.50
2010,03,22,22,27,8.50
2010,03,22,22,28,8.50
2010,03,22,22,29,8.50
2010,03,22,22,30,8.50
2010,03,22,22,31,8.50
2010,03,22,22,32,8.50
2010,03,22,22,33,8.50
2010,03,22,22,34,8.40
2010,03,22,22,35,8.50
2010,03,22,22,36,8.40
2010,03,22,22,37,8.50
2010,03,22,22,38,8.40
2010,03,22,22,39,8.40
2010,03,22,22,40,8.40
2010,03,22,22,41,8.40
2010,03,22,22,42,8.40
2010,03,22,22,43,8.40
2010,03,22,22,44,8.40
2010,03,22,22,45,8.40
2010,03,22,22,46,8.40
2010,03,22,22,47,8.40
2010,03,22,22,48,8.40
2010,03,22,22,49,8.40
2010,03,22,22,50,8.40
2010,03,22,22,51,8.40
2010,03,22,22,52,8.40
2010,03,22,22,53,8.40
2010,03,22,22,54,8.40
2010,03,22,22,55,8.40
2010,03,22,22,56,8.40
2010,03,22,22,57,8.40
2010,03,22,22,58,8.40
2010,03,22,22,59,8.40
2010,03,22,23,00,8.40
2010,03,22,23,01,8.40
2010,03,22,23,02,8.40
2010,03,22,23,03,8.40
2010,03,22,23,04,8.40
2010,03,22,23,05,8.40
2010,03,22,23,06,8.30
2010,03,22,23,07,8.30
2010,03,22,23,08,8.30
2010,03,22,23,09,8.30
2010,03,22,23,10,8.30
2010,03,22,23,11,8.30
2010,03,22,23,12,8.30
2010,03,22,23,13,8.30
2010,03,22,23,14,8.30
2010,03,22,23,15,8.30
2010,03,22,23,16,8.30
2010,03,22,23,17,8.30
2010,03,22,23,18,8.30
2010,03,22,23,19,8.30
2010,03,22,23,20,8.30
2010,03,22,23,21,8.30
2010,03,22,23,22,8.20
2010,03,22,23,23,8.20
2010,03,22,23,24,8.20
2010,03,22,23,25,8.20
2010,03,22,23,26,8.20
2010,03,22,23,27,8.20
2010,03,22,23,28,8.20
2010,03,22,23,29,8.20
2010,03,22,23,30,8.20
2010,03,22,23,31,8.20
2010,03,22,23,32,8.10
2010,03,22,23,33,8.10
2010,03,22,23,34,8.10
2010,03,22,23,35,8.00
2010,03,22,23,36,8.00
2010,03,22,23,37,7.90
2010,03,22,23,38,7.90
2010,03,22,23,39,7.80
2010,03,22,23,40,7.80
2010,03,22,23,41,7.80
2010,03,22,23,42,7.70
2010,03,22,23,43,7.70
2010,03,22,23,44,7.70
2010,03,22,23,45,7.60
2010,03,22,23,46,7.60
2010,03,22,23,47,7.50
2010,03,22,23,48,7.50
2010,03,22,23,49,7.50
2010,03,22,23,50,7.50
2010,03,22,23,51,7.50
2010,03,22,23,52,7.40
2010,03,22,23,53,7.30
2010,03,22,23,54,7.20
2010,03,22,23,55,7.20
2010,03,22,23,56,7.20
2010,03,22,23,57,7.20
2010,03,22,23,58,7.10
2010,03,22,23,59,7.10
